N1BFO Weather Reports


Display with metric or nautical units.
time (UTC)temp
F
wind
direction
speed
MPH
gust
MPH
rain 1hr
in
rain 24hr
in
rain mn
in
humidity
%
barometer
mb
20260510010525 48 0 0.0 0.0 0.03 0.68 0.68 95 1011.7
20260510010036 48 0 0.0 1.0 0.05 0.68 0.68 96 1011.7
20260510005527 48 0 0.0 1.0 0.06 0.68 0.68 95 1011.7
20260510005025 48 153 0.0 1.0 0.07 0.68 0.68 95 1011.7
20260510004536 48 153 0.0 2.0 0.09 0.68 0.68 95 1011.7
20260510004025 48 153 0.0 2.0 0.10 0.68 0.68 95 1011.9
20260510003528 48 352 0.0 2.0 0.11 0.68 0.68 95 1011.9
20260510003053 48 267 0.0 2.0 0.13 0.68 0.68 95 1012.0
20260510002525 48 0 0.0 2.0 0.13 0.67 0.67 95 1011.9
20260510002023 48 0 0.0 2.0 0.14 0.67 0.67 95 1011.9
20260510001544 48 159 0.0 2.0 0.15 0.66 0.66 95 1011.9
20260510001027 47 141 1.0 2.0 0.14 0.65 0.65 95 1012.0
20260510000526 47 144 0.0 1.0 0.14 0.64 0.64 95 1012.2
20260510000048 47 0 0.0 1.0 0.13 0.63 0.63 95 1012.4
20260509235525 47 151 0.0 1.0 0.13 0.62 0.62 95 1012.3
20260509235032 47 0 0.0 1.0 0.12 0.60 0.60 95 1012.2
20260509234545 47 0 0.0 1.0 0.11 0.58 0.58 95 1012.2
20260509234030 47 119 0.0 1.0 0.11 0.58 0.58 95 1012.3
20260509233525 47 0 0.0 1.0 0.09 0.56 0.56 95 1012.4
20260509233043 47 0 0.0 1.0 0.09 0.55 0.55 95 1012.3
20260509232525 47 0 0.0 1.0 0.08 0.54 0.54 94 1012.4
20260509232027 47 115 0.0 1.0 0.06 0.52 0.52 95 1012.2
20260509231539 47 115 0.0 1.0 0.06 0.51 0.51 94 1012.2
20260509231026 47 0 0.0 2.0 0.05 0.50 0.50 94 1012.0
20260509230525 47 120 0.0 2.0 0.05 0.50 0.50 94 1011.9
20260509230036 47 179 0.0 2.0 0.06 0.50 0.50 94 1011.8
20260509225525 47 23 0.0 1.0 0.05 0.49 0.49 94 1011.8
20260509225025 47 79 0.0 1.0 0.04 0.48 0.48 94 1011.8
20260509224536 48 120 0.0 2.0 0.05 0.48 0.48 94 1011.8
20260509224026 48 112 0.0 2.0 0.04 0.47 0.47 94 1011.8
20260509223525 48 0 0.0 1.0 0.05 0.47 0.47 94 1011.9
20260509223045 48 101 0.0 1.0 0.04 0.46 0.46 94 1012.0
20260509222524 48 0 0.0 1.0 0.05 0.46 0.46 94 1011.9
20260509222029 48 99 0.0 1.0 0.07 0.46 0.46 94 1012.0
20260509221536 48 0 0.0 1.0 0.09 0.45 0.45 94 1012.0
20260509221028 48 0 0.0 3.0 0.11 0.45 0.45 94 1012.1
20260509220525 48 88 0.0 3.0 0.13 0.45 0.45 94 1012.2
20260509220052 48 0 0.0 2.0 0.15 0.44 0.44 94 1012.3
20260509215524 48 0 0.0 3.0 0.16 0.44 0.44 94 1012.3
20260509215028 48 349 1.0 3.0 0.18 0.44 0.44 94 1012.4
20260509214550 48 65 0.0 3.0 0.18 0.43 0.43 94 1012.2
20260509214025 48 0 0.0 4.0 0.20 0.43 0.43 94 1012.0
20260509213530 48 0 1.0 4.0 0.21 0.42 0.42 94 1012.4
20260509213042 48 353 1.0 4.0 0.23 0.42 0.42 94 1012.3
20260509212526 48 333 0.0 3.0 0.23 0.41 0.41 94 1012.1
20260509212026 48 0 1.0 3.0 0.21 0.38 0.38 93 1012.2
20260509211543 48 0 0.0 3.0 0.19 0.36 0.36 93 1012.3
20260509211025 49 274 0.0 3.0 0.17 0.34 0.34 93 1012.1
20260509210525 49 0 0.0 3.0 0.15 0.32 0.32 93 1012.1
20260509210039 49 359 1.0 3.0 0.12 0.29 0.29 93 1012.3
20260509205526 49 0 0.0 3.0 0.11 0.28 0.28 93 1012.1
20260509205024 49 354 0.0 4.0 0.09 0.26 0.26 93 1012.0
20260509204556 49 95 1.0 4.0 0.07 0.24 0.24 92 1012.0
20260509204024 49 0 0.0 2.0 0.05 0.22 0.22 92 1012.2
20260509203524 49 0 0.0 2.0 0.04 0.21 0.21 92 1012.2
20260509203043 49 0 0.0 4.0 0.01 0.18 0.18 92 1012.2
20260509202526 50 324 1.0 4.0 0.01 0.18 0.18 92 1012.1
20260509202026 50 0 0.0 3.0 0.00 0.17 0.17 91 1012.2
20260509201543 50 266 1.0 3.0 0.00 0.17 0.17 91 1012.2
20260509201024 50 96 1.0 3.0 0.00 0.17 0.17 91 1012.2
20260509200525 50 357 0.0 2.0 0.00 0.17 0.17 92 1012.2
20260509200041 50 3 0.0 1.0 0.00 0.17 0.17 92 1012.2
20260509195526 50 341 0.0 2.0 0.00 0.17 0.17 91 1012.3
20260509195028 50 0 0.0 2.0 0.00 0.17 0.17 91 1012.3
20260509194542 50 0 0.0 1.0 0.00 0.17 0.17 91 1012.3
20260509194028 50 71 0.0 1.0 0.00 0.17 0.17 91 1012.1
20260509193525 50 0 0.0 2.0 0.00 0.17 0.17 91 1012.2
20260509193043 50 0 0.0 3.0 0.00 0.17 0.17 91 1012.2
20260509192529 50 0 0.0 3.0 0.00 0.17 0.17 91 1012.1
20260509192027 50 0 2.0 3.0 0.00 0.17 0.17 90 1012.1
20260509191546 51 94 0.0 6.0 0.00 0.17 0.17 91 1011.9
20260509191025 51 125 1.0 6.0 0.00 0.17 0.17 91 1011.9
20260509190532 51 294 1.0 5.0 0.00 0.17 0.17 91 1011.6
20260509190044 51 4 0.0 3.0 0.00 0.17 0.17 91 1012.1
20260509185525 51 340 0.0 3.0 0.00 0.17 0.17 91 1012.1
20260509185028 51 80 1.0 3.0 0.00 0.17 0.17 91 1011.9
20260509184540 51 16 1.0 4.0 0.01 0.17 0.17 90 1012.1
20260509184024 51 340 0.0 4.0 0.01 0.17 0.17 91 1012.2
20260509183525 51 321 0.0 4.0 0.01 0.17 0.17 90 1012.5
20260509183043 51 335 0.0 4.0 0.01 0.17 0.17 91 1012.4
20260509182524 50 309 0.0 4.0 0.01 0.17 0.17 89 1012.7
20260509182024 50 0 1.0 4.0 0.01 0.17 0.17 89 1012.6
20260509181538 50 107 0.0 2.0 0.01 0.17 0.17 90 1013.0
20260509181025 50 21 0.0 2.0 0.01 0.17 0.17 91 1013.1
20260509180529 50 344 0.0 2.0 0.02 0.17 0.17 90 1013.1
20260509180035 50 349 0.0 2.0 0.02 0.17 0.17 91 1012.9
20260509175527 50 0 0.0 1.0 0.02 0.17 0.17 91 1013.0
20260509175026 49 300 0.0 2.0 0.02 0.17 0.17 90 1013.1
20260509174554 49 0 0.0 2.0 0.01 0.16 0.16 90 1013.1
20260509174024 49 0 0.0 2.0 0.01 0.16 0.16 90 1013.1
20260509173526 49 350 0.0 5.0 0.01 0.16 0.16 89 1013.3
20260509173045 49 0 1.0 5.0 0.02 0.16 0.16 89 1013.1
20260509172526 50 16 0.0 2.0 0.02 0.16 0.16 90 1013.1
20260509172024 50 106 0.0 2.0 0.02 0.16 0.16 90 1013.2
20260509171541 49 38 0.0 1.0 0.02 0.16 0.16 89 1013.2
20260509171024 49 0 0.0 2.0 0.03 0.16 0.16 88 1013.4
20260509170526 49 0 0.0 2.0 0.02 0.15 0.15 89 1013.6
20260509170038 49 321 0.0 4.0 0.03 0.15 0.15 89 1013.6
20260509165526 49 0 0.0 4.0 0.03 0.15 0.15 90 1013.5
20260509165029 49 100 0.0 3.0 0.03 0.15 0.15 90 1013.5
20260509164536 49 105 0.0 3.0 0.04 0.15 0.15 91 1013.6
20260509164026 49 106 0.0 2.0 0.04 0.15 0.15 90 1013.7
20260509163524 49 0 0.0 1.0 0.04 0.15 0.15 91 1013.6
20260509163040 48 59 0.0 1.0 0.04 0.14 0.14 90 1013.6
20260509162527 48 59 0.0 1.0 0.04 0.14 0.14 90 1013.6
20260509162033 48 0 0.0 1.0 0.04 0.14 0.14 89 1013.6
20260509161540 48 0 0.0 1.0 0.04 0.14 0.14 89 1013.7
20260509161029 48 0 0.0 1.0 0.04 0.13 0.13 90 1013.7
20260509160527 48 0 0.0 3.0 0.04 0.13 0.13 89 1013.6
20260509160039 48 17 0.0 3.0 0.03 0.12 0.12 90 1013.5
20260509155525 48 1 0.0 2.0 0.03 0.12 0.12 89 1013.5
20260509155025 48 345 0.0 4.0 0.04 0.12 0.12 89 1013.5
20260509154541 48 122 1.0 4.0 0.03 0.11 0.11 89 1013.6
20260509154027 48 342 0.0 3.0 0.03 0.11 0.11 88 1013.7
20260509153525 48 147 0.0 2.0 0.03 0.11 0.11 90 1013.7
20260509153036 48 340 0.0 1.0 0.03 0.10 0.10 90 1013.8
20260509152526 47 0 0.0 1.0 0.03 0.10 0.10 90 1013.9
20260509152024 47 341 0.0 1.0 0.03 0.10 0.10 90 1014.0
20260509151535 47 91 0.0 1.0 0.04 0.10 0.10 90 1014.0
20260509151026 47 0 0.0 1.0 0.03 0.09 0.09 89 1014.2
20260509150526 46 0 0.0 1.0 0.03 0.09 0.09 89 1014.2
20260509150040 46 0 0.0 1.0 0.04 0.09 0.09 88 1014.3
20260509145526 46 0 0.0 0.0 0.04 0.09 0.09 88 1014.3
20260509145026 46 0 0.0 0.0 0.03 0.08 0.08 89 1014.4
20260509144558 46 0 0.0 0.0 0.04 0.08 0.08 89 1014.5
20260509144026 46 0 0.0 0.0 0.04 0.08 0.08 89 1014.5
20260509143527 46 0 0.0 0.0 0.05 0.08 0.08 89 1014.5
20260509143041 46 0 0.0 0.0 0.04 0.07 0.07 89 1014.5
20260509142526 46 0 0.0 0.0 0.04 0.07 0.07 89 1014.8
20260509142029 46 0 0.0 0.0 0.04 0.07 0.07 89 1014.8
20260509141540 46 0 0.0 0.0 0.04 0.06 0.06 90 1014.6
20260509141027 45 0 0.0 0.0 0.04 0.06 0.06 90 1014.7
20260509140527 45 0 0.0 0.0 0.03 0.05 0.05 89 1014.7
20260509140058 45 0 0.0 0.0 0.03 0.05 0.05 89 1014.9
20260509135526 45 0 0.0 0.0 0.04 0.05 0.05 89 1014.8
20260509135027 45 0 0.0 0.0 0.03 0.04 0.04 89 1014.8
20260509134537 45 204 0.0 0.0 0.03 0.04 0.04 88 1014.6
20260509134028 45 0 0.0 0.0 0.03 0.04 0.04 88 1014.6
20260509133525 45 0 0.0 0.0 0.02 0.03 0.03 87 1014.6
20260509133040 45 0 0.0 0.0 0.03 0.03 0.03 88 1014.4
20260509132525 45 0 0.0 0.0 0.03 0.03 0.03 87 1014.3
20260509132023 45 0 0.0 0.0 0.03 0.03 0.03 87 1014.3
20260509131549 44 0 0.0 0.0 0.02 0.02 0.02 87 1014.3
20260509131023 44 0 0.0 0.0 0.02 0.02 0.02 87 1014.2
20260509130523 44 0 0.0 0.0 0.02 0.02 0.02 87 1014.3
20260509130044 44 0 0.0 0.0 0.01 0.01 0.01 86 1014.3
20260509125527 44 0 0.0 0.0 0.01 0.01 0.01 85 1014.3
20260509125026 44 0 0.0 0.0 0.01 0.01 0.01 85 1014.4
20260509124542 44 0 0.0 0.0 0.01 0.01 0.01 84 1014.3
20260509124027 44 0 0.0 0.0 0.01 0.01 0.01 84 1014.4
20260509123526 44 0 0.0 0.0 0.01 0.01 0.01 84 1014.6
20260509123041 45 171 0.0 0.0 0.00 0.00 0.00 85 1014.8
20260509122526 45 172 0.0 0.0 0.00 0.00 0.00 83 1014.9
20260509122025 45 0 0.0 0.0 0.00 0.00 0.00 82 1014.7
20260509121551 45 0 0.0 0.0 0.00 0.00 0.00 81 1014.5
20260509121033 45 0 0.0 0.0 0.00 0.00 0.00 80 1014.5
20260509120526 45 0 0.0 1.0 0.00 0.00 0.00 80 1014.5
20260509120038 45 226 0.0 1.0 0.00 0.00 0.00 80 1014.5
20260509115526 44 0 0.0 1.0 0.00 0.00 0.00 80 1014.6
20260509115026 44 0 0.0 0.0 0.00 0.00 0.00 80 1014.7
20260509114539 44 0 0.0 1.0 0.00 0.00 0.00 81 1014.7
20260509114027 43 0 0.0 1.0 0.00 0.00 0.00 82 1014.6
20260509113526 43 0 0.0 1.0 0.00 0.00 0.00 83 1014.6
20260509113050 42 120 0.0 1.0 0.00 0.00 0.00 85 1014.5
20260509112524 42 0 0.0 1.0 0.00 0.00 0.00 86 1014.4
20260509112026 41 198 0.0 0.0 0.00 0.00 0.00 87 1014.5
20260509111541 40 0 0.0 0.0 0.00 0.00 0.00 89 1014.5
20260509111027 40 0 0.0 0.0 0.00 0.00 0.00 91 1014.4
20260509110526 40 0 0.0 0.0 0.00 0.00 0.00 92 1014.4
20260509110038 39 0 0.0 0.0 0.00 0.00 0.00 93 1014.4
20260509105525 39 0 0.0 0.0 0.00 0.00 0.00 93 1014.4
20260509105026 39 0 0.0 0.0 0.00 0.00 0.00 94 1014.6
20260509104537 38 0 0.0 0.0 0.00 0.00 0.00 94 1014.5
20260509104024 38 0 0.0 0.0 0.00 0.00 0.00 94 1014.6
20260509103526 38 0 0.0 0.0 0.00 0.00 0.00 94 1014.4
20260509103039 37 0 0.0 0.0 0.00 0.00 0.00 94 1014.4
20260509102525 37 0 0.0 0.0 0.00 0.00 0.00 94 1014.4
20260509102027 36 0 0.0 0.0 0.00 0.00 0.00 94 1014.4
20260509101537 36 0 0.0 0.0 0.00 0.00 0.00 94 1014.4
20260509101025 35 0 0.0 0.0 0.00 0.00 0.00 94 1014.2
20260509100526 35 0 0.0 0.0 0.00 0.00 0.00 93 1014.2
20260509100041 35 0 0.0 0.0 0.00 0.00 0.00 93 1014.2
20260509095526 34 0 0.0 0.0 0.00 0.00 0.00 93 1014.1
20260509095026 34 0 0.0 0.0 0.00 0.00 0.00 93 1014.0
20260509094538 34 0 0.0 0.0 0.00 0.00 0.00 93 1014.0
20260509094027 34 0 0.0 0.0 0.00 0.00 0.00 93 1013.9
20260509093526 34 0 0.0 0.0 0.00 0.00 0.00 93 1014.0
20260509093038 34 0 0.0 0.0 0.00 0.00 0.00 92 1013.9
20260509092526 34 0 0.0 0.0 0.00 0.00 0.00 93 1013.8
20260509092025 34 0 0.0 0.0 0.00 0.00 0.00 93 1013.8
20260509091540 34 0 0.0 0.0 0.00 0.00 0.00 92 1013.7
20260509091025 34 0 0.0 0.0 0.00 0.00 0.00 92 1013.7
20260509090526 34 0 0.0 0.0 0.00 0.00 0.00 92 1013.8
20260509090056 34 0 0.0 0.0 0.00 0.00 0.00 92 1013.7
20260509085525 34 0 0.0 0.0 0.00 0.00 0.00 92 1013.7
20260509085025 33 0 0.0 0.0 0.00 0.00 0.00 92 1013.7
20260509084544 33 0 0.0 0.0 0.00 0.00 0.00 91 1013.6
20260509084025 33 0 0.0 0.0 0.00 0.00 0.00 91 1013.7
20260509083524 34 0 0.0 0.0 0.00 0.00 0.00 91 1013.5
20260509083048 34 0 0.0 0.0 0.00 0.00 0.00 91 1013.4
20260509082526 34 0 0.0 0.0 0.00 0.00 0.00 91 1013.4
20260509082026 34 0 0.0 0.0 0.00 0.00 0.00 91 1013.5
20260509081539 35 0 0.0 0.0 0.00 0.00 0.00 91 1013.5
20260509081026 35 0 0.0 0.0 0.00 0.00 0.00 90 1013.6
20260509080523 35 0 0.0 0.0 0.00 0.00 0.00 90 1013.6
20260509080037 35 0 0.0 0.0 0.00 0.00 0.00 91 1013.6
20260509075525 35 0 0.0 0.0 0.00 0.00 0.00 90 1013.7
20260509075026 35 0 0.0 0.0 0.00 0.00 0.00 91 1013.7
20260509074537 35 0 0.0 0.0 0.00 0.00 0.00 90 1013.7
20260509074026 35 0 0.0 0.0 0.00 0.00 0.00 91 1013.7
20260509073526 35 0 0.0 0.0 0.00 0.00 0.00 91 1013.6
20260509073046 35 0 0.0 0.0 0.00 0.00 0.00 91 1013.7
20260509072526 35 0 0.0 0.0 0.00 0.00 0.00 90 1013.5
20260509072026 35 0 0.0 0.0 0.00 0.00 0.00 89 1013.5
20260509071542 35 0 0.0 0.0 0.00 0.00 0.00 89 1013.5
20260509071026 35 0 0.0 0.0 0.00 0.00 0.00 89 1013.5
20260509070526 36 0 0.0 0.0 0.00 0.00 0.00 88 1013.5
20260509070040 36 0 0.0 0.0 0.00 0.00 0.00 88 1013.4
20260509065525 36 0 0.0 0.0 0.00 0.00 0.00 88 1013.4
20260509065023 36 0 0.0 0.0 0.00 0.00 0.00 87 1013.4
20260509064544 36 0 0.0 0.0 0.00 0.00 0.00 88 1013.4
20260509064029 36 0 0.0 0.0 0.00 0.00 0.00 87 1013.3
20260509063531 37 0 0.0 0.0 0.00 0.00 0.00 87 1013.3
20260509063035 37 0 0.0 0.0 0.00 0.00 0.00 87 1013.3
20260509062530 37 0 0.0 0.0 0.00 0.00 0.00 87 1013.3
20260509062031 37 0 0.0 0.0 0.00 0.00 0.00 87 1013.3
20260509061546 37 0 0.0 0.0 0.00 0.00 0.00 87 1013.3
20260509061026 37 0 0.0 0.0 0.00 0.00 0.00 86 1013.3
20260509060525 37 0 0.0 0.0 0.00 0.00 0.00 86 1013.3
20260509060043 37 0 0.0 0.0 0.00 0.00 0.00 86 1013.4
20260509055526 37 0 0.0 0.0 0.00 0.00 0.00 87 1013.4
20260509055028 37 0 0.0 0.0 0.00 0.00 0.00 87 1013.4
20260509054540 37 0 0.0 0.0 0.00 0.00 0.00 86 1013.5
20260509054028 37 0 0.0 0.0 0.00 0.00 0.00 86 1013.5
20260509053526 37 0 0.0 0.0 0.00 0.00 0.00 85 1013.6
20260509053058 37 0 0.0 0.0 0.00 0.00 0.00 85 1013.5
20260509052527 37 0 0.0 0.0 0.00 0.00 0.00 85 1013.5
20260509052026 37 0 0.0 0.0 0.00 0.00 0.00 85 1013.5
20260509051536 38 0 0.0 0.0 0.00 0.00 0.00 85 1013.4
20260509051025 38 0 0.0 0.0 0.00 0.00 0.00 84 1013.2
20260509050526 38 0 0.0 0.0 0.00 0.00 0.00 84 1013.3
20260509050046 38 0 0.0 0.0 0.00 0.00 0.00 83 1013.3
20260509045528 38 0 0.0 0.0 0.00 0.00 0.00 83 1013.2
20260509045026 38 0 0.0 0.0 0.00 0.00 0.00 82 1013.3
20260509044542 38 0 0.0 0.0 0.00 0.00 0.00 82 1013.3
20260509044024 39 0 0.0 0.0 0.00 0.00 0.00 82 1013.3
20260509043525 39 0 0.0 0.0 0.00 0.00 0.00 82 1013.3
20260509043050 39 0 0.0 0.0 0.00 0.00 0.00 81 1013.3
20260509042524 39 0 0.0 0.0 0.00 0.00 0.00 81 1013.3
20260509042025 39 0 0.0 0.0 0.00 0.00 0.00 80 1013.2
20260509041550 39 0 0.0 0.0 0.00 0.00 0.00 80 1013.1
20260509041029 40 0 0.0 0.0 0.00 0.00 0.00 79 1013.0
20260509040528 40 0 0.0 0.0 0.00 0.00 0.00 78 1013.0
20260509040039 40 0 0.0 0.0 0.00 0.00 0.00 78 1013.0
20260509035524 40 0 0.0 0.0 0.00 0.00 0.00 78 1012.9
20260509035026 40 0 0.0 0.0 0.00 0.00 0.00 78 1012.9
20260509034601 40 0 0.0 0.0 0.00 0.00 0.00 77 1012.9
20260509034027 40 0 0.0 0.0 0.00 0.00 0.00 77 1013.0
20260509033525 40 0 0.0 0.0 0.00 0.00 0.00 76 1012.9
20260509033041 40 0 0.0 0.0 0.00 0.00 0.00 77 1012.9
20260509032524 40 0 0.0 0.0 0.00 0.00 0.00 76 1013.0
20260509032026 41 0 0.0 0.0 0.00 0.00 0.00 76 1012.8
20260509031540 41 0 0.0 0.0 0.00 0.00 0.00 75 1012.9
20260509031024 41 0 0.0 0.0 0.00 0.00 0.00 75 1012.9
20260509030526 41 0 0.0 0.0 0.00 0.00 0.00 73 1012.8
20260509030042 42 0 0.0 0.0 0.00 0.00 0.00 73 1012.8
20260509025524 42 0 0.0 0.0 0.00 0.00 0.00 73 1012.8
20260509025024 42 0 0.0 0.0 0.00 0.00 0.00 72 1012.8
20260509024543 42 0 0.0 0.0 0.00 0.00 0.00 71 1012.7
20260509024028 43 0 0.0 0.0 0.00 0.00 0.00 71 1012.7
20260509023526 43 0 0.0 0.0 0.00 0.00 0.00 70 1012.7
20260509023045 43 0 0.0 0.0 0.00 0.00 0.00 69 1012.6
20260509022525 43 0 0.0 0.0 0.00 0.00 0.00 68 1012.7
20260509022024 44 0 0.0 0.0 0.00 0.00 0.00 68 1012.7
20260509021541 44 0 0.0 0.0 0.00 0.00 0.00 67 1012.6
20260509021025 44 0 0.0 0.0 0.00 0.00 0.00 67 1012.4
20260509020526 45 0 0.0 0.0 0.00 0.00 0.00 66 1012.2
20260509020047 45 0 0.0 0.0 0.00 0.00 0.00 65 1012.1
20260509015526 45 0 0.0 0.0 0.00 0.00 0.00 64 1012.0
20260509015025 45 0 0.0 0.0 0.00 0.00 0.00 63 1012.0
20260509014538 45 0 0.0 0.0 0.00 0.00 0.00 63 1012.0
20260509014027 46 0 0.0 0.0 0.00 0.00 0.00 62 1012.0
20260509013524 46 0 0.0 0.0 0.00 0.00 0.00 62 1012.0
20260509013047 46 0 0.0 0.0 0.00 0.00 0.00 61 1011.8
20260509012527 46 0 0.0 0.0 0.00 0.00 0.00 59 1011.7
20260509012027 47 0 0.0 0.0 0.00 0.00 0.00 59 1011.7
20260509011541 47 0 0.0 0.0 0.00 0.00 0.00 58 1011.6
20260509011025 47 0 0.0 0.0 0.00 0.00 0.00 57 1011.5